Overview Statistics Trail Chart Weather Telemetry Raw packets
 

This is the latest recevied weather packets stored in our database for station/object PE1RXF-13. If no packets are shown the sender has not sent any weather packets the latest 10 day(s).

<< 5 6 7 8 9 10 11 >>
Time Temp. Humidity Pressure Rain* Wind** Luminosity Snow
1788512298 20° C 99% 1005.2 hPa 0 mm - 63 W/m² -
1788511195 20° C 99% 1005.3 hPa 0.51 mm - 56 W/m² -
1788510092 19.44° C 99% 1005.3 hPa 0.51 mm - 30 W/m² -
1788508989 18.89° C 99% 1005.7 hPa 0.51 mm - 37 W/m² -
1788507886 18.89° C 99% 1006 hPa 0 mm - 19 W/m² -
1788506783 18.89° C 99% 1006 hPa 0 mm - 7 W/m² -
1788505680 18.89° C 99% 1006.3 hPa 0 mm - 25 W/m² -
1788504577 18.89° C 99% 1006.4 hPa 1.02 mm - 12 W/m² -
1788503474 18.33° C 99% 1006.7 hPa 1.02 mm - 19 W/m² -
1788502371 18.33° C 99% 1007 hPa 1.02 mm - 9 W/m² -
1788501268 18.33° C 99% 1007.2 hPa 1.78 mm - 5 W/m² -
1788500165 18.33° C 99% 1007.7 hPa 1.78 mm - 1 W/m² -
1788499062 18.33° C 99% 1007.8 hPa 1.78 mm - 0 W/m² -
1788497960 18.33° C 99% 1007.9 hPa 1.78 mm - 0 W/m² -
1788496856 18.33° C 99% 1007.8 hPa 0 mm - 0 W/m² -
1788495753 18.33° C 99% 1008.3 hPa 0 mm - 0 W/m² -
1788494650 18.33° C 99% 1008.5 hPa 0 mm - 0 W/m² -
1788493547 18.89° C 99% 1009.1 hPa 0 mm - 0 W/m² -
1788492444 18.33° C 99% 1009.2 hPa 0 mm - 0 W/m² -
1788491341 18.33° C 99% 1009.1 hPa 0 mm - 0 W/m² -
1788490238 18.33° C 99% 1009.4 hPa 0.25 mm - 0 W/m² -
1788489135 17.78° C 99% 1009.7 hPa 0.25 mm - 0 W/m² -
1788488032 18.33° C 99% 1009.8 hPa 0.25 mm - 0 W/m² -
1788486929 18.33° C 99% 1010.2 hPa 0 mm - 0 W/m² -
1788485826 18.33° C 99% 1010.4 hPa 0 mm - 0 W/m² -

* Rain latest hour (hover to see other rain measurements)
** Current wind speed in m/s (hover to see current wind gust speed)